Year,Month,Day,Hour,Minute,Value (Times are PST for temperature in C)
2012,10,16,00,00,13.00
2012,10,16,00,01,13.00
2012,10,16,00,02,13.00
2012,10,16,00,03,13.00
2012,10,16,00,04,13.00
2012,10,16,00,05,13.00
2012,10,16,00,06,13.00
2012,10,16,00,07,13.00
2012,10,16,00,08,12.90
2012,10,16,00,09,12.90
2012,10,16,00,10,12.90
2012,10,16,00,11,12.90
2012,10,16,00,12,12.80
2012,10,16,00,13,12.80
2012,10,16,00,14,12.80
2012,10,16,00,15,12.80
2012,10,16,00,16,12.80
2012,10,16,00,17,12.80
2012,10,16,00,18,12.80
2012,10,16,00,19,12.80
2012,10,16,00,20,12.80
2012,10,16,00,21,12.80
2012,10,16,00,22,12.80
2012,10,16,00,23,12.80
2012,10,16,00,24,12.70
2012,10,16,00,25,12.70
2012,10,16,00,26,12.70
2012,10,16,00,27,12.70
2012,10,16,00,28,12.70
2012,10,16,00,29,12.70
2012,10,16,00,30,12.70
2012,10,16,00,31,12.60
2012,10,16,00,32,12.60
2012,10,16,00,33,12.60
2012,10,16,00,34,12.60
2012,10,16,00,35,12.60
2012,10,16,00,36,12.60
2012,10,16,00,37,12.60
2012,10,16,00,38,12.60
2012,10,16,00,39,12.60
2012,10,16,00,40,12.60
2012,10,16,00,41,12.60
2012,10,16,00,42,12.60
2012,10,16,00,43,12.60
2012,10,16,00,44,12.60
2012,10,16,00,45,12.60
2012,10,16,00,46,12.60
2012,10,16,00,47,12.60
2012,10,16,00,48,12.50
2012,10,16,00,49,12.50
2012,10,16,00,50,12.50
2012,10,16,00,51,12.40
2012,10,16,00,52,12.40
2012,10,16,00,53,12.40
2012,10,16,00,54,12.30
2012,10,16,00,55,12.30
2012,10,16,00,56,12.30
2012,10,16,00,57,12.30
2012,10,16,00,58,12.30
2012,10,16,00,59,12.30
2012,10,16,01,00,12.30
2012,10,16,01,01,12.30
2012,10,16,01,02,12.30
2012,10,16,01,03,12.30
2012,10,16,01,04,12.30
2012,10,16,01,05,12.30
2012,10,16,01,06,12.30
2012,10,16,01,07,12.30
2012,10,16,01,08,12.30
2012,10,16,01,09,12.30
2012,10,16,01,10,12.30
2012,10,16,01,11,12.30
2012,10,16,01,12,12.30
2012,10,16,01,13,12.30
2012,10,16,01,14,12.30
2012,10,16,01,15,12.30
2012,10,16,01,16,12.30
2012,10,16,01,17,12.30
2012,10,16,01,18,12.30
2012,10,16,01,19,12.30
2012,10,16,01,20,12.30
2012,10,16,01,21,12.30
2012,10,16,01,22,12.30
2012,10,16,01,23,12.30
2012,10,16,01,24,12.30
2012,10,16,01,25,12.30
2012,10,16,01,26,12.30
2012,10,16,01,27,12.30
2012,10,16,01,28,12.30
2012,10,16,01,29,12.30
2012,10,16,01,30,12.30
2012,10,16,01,31,12.30
2012,10,16,01,32,12.30
2012,10,16,01,33,12.30
2012,10,16,01,34,12.30
2012,10,16,01,35,12.30
2012,10,16,01,36,12.30
2012,10,16,01,37,12.30
2012,10,16,01,38,12.30
2012,10,16,01,39,12.30
2012,10,16,01,40,12.30
2012,10,16,01,41,12.30
2012,10,16,01,42,12.30
2012,10,16,01,43,12.30
2012,10,16,01,44,12.30
2012,10,16,01,45,12.30
2012,10,16,01,46,12.30
2012,10,16,01,47,12.30
2012,10,16,01,48,12.30
2012,10,16,01,49,12.30
2012,10,16,01,50,12.30
2012,10,16,01,51,12.30
2012,10,16,01,52,12.30
2012,10,16,01,53,12.30
2012,10,16,01,54,12.30
2012,10,16,01,55,12.30
2012,10,16,01,56,12.30
2012,10,16,01,57,12.30
2012,10,16,01,58,12.30
2012,10,16,01,59,12.40
2012,10,16,02,00,12.40
2012,10,16,02,01,12.40
2012,10,16,02,02,12.30
2012,10,16,02,03,12.30
2012,10,16,02,04,12.30
2012,10,16,02,05,12.30
2012,10,16,02,06,12.30
2012,10,16,02,07,12.30
2012,10,16,02,08,12.30
2012,10,16,02,09,12.30
2012,10,16,02,10,12.30
2012,10,16,02,11,12.30
2012,10,16,02,12,12.30
2012,10,16,02,13,12.40
2012,10,16,02,14,12.40
2012,10,16,02,15,12.40
2012,10,16,02,16,12.40
2012,10,16,02,17,12.40
2012,10,16,02,18,12.30
2012,10,16,02,19,12.30
2012,10,16,02,20,12.30
2012,10,16,02,21,12.30
2012,10,16,02,22,12.30
2012,10,16,02,23,12.30
2012,10,16,02,24,12.30
2012,10,16,02,25,12.30
2012,10,16,02,26,12.30
2012,10,16,02,27,12.30
2012,10,16,02,28,12.30
2012,10,16,02,29,12.30
2012,10,16,02,30,12.30
2012,10,16,02,31,12.30
2012,10,16,02,32,12.30
2012,10,16,02,33,12.30
2012,10,16,02,34,12.30
2012,10,16,02,35,12.30
2012,10,16,02,36,12.30
2012,10,16,02,37,12.30
2012,10,16,02,38,12.30
2012,10,16,02,39,12.40
2012,10,16,02,40,12.40
2012,10,16,02,41,12.40
2012,10,16,02,42,12.40
2012,10,16,02,43,12.40
2012,10,16,02,44,12.40
2012,10,16,02,45,12.40
2012,10,16,02,46,12.40
2012,10,16,02,47,12.40
2012,10,16,02,48,12.40
2012,10,16,02,49,12.40
2012,10,16,02,50,12.40
2012,10,16,02,51,12.40
2012,10,16,02,52,12.40
2012,10,16,02,53,12.40
2012,10,16,02,54,12.40
2012,10,16,02,55,12.40
2012,10,16,02,56,12.40
2012,10,16,02,57,12.40
2012,10,16,02,58,12.40
2012,10,16,02,59,12.40
2012,10,16,03,00,12.40
2012,10,16,03,01,12.40
2012,10,16,03,02,12.40
2012,10,16,03,03,12.40
2012,10,16,03,04,12.40
2012,10,16,03,05,12.30
2012,10,16,03,06,12.30
2012,10,16,03,07,12.30
2012,10,16,03,08,12.30
2012,10,16,03,09,12.30
2012,10,16,03,10,12.20
2012,10,16,03,11,12.20
2012,10,16,03,12,12.20
2012,10,16,03,13,12.20
2012,10,16,03,14,12.10
2012,10,16,03,15,12.10
2012,10,16,03,16,12.10
2012,10,16,03,17,12.00
2012,10,16,03,18,12.00
2012,10,16,03,19,12.00
2012,10,16,03,20,11.90
2012,10,16,03,21,11.90
2012,10,16,03,22,11.90
2012,10,16,03,23,11.80
2012,10,16,03,24,11.80
2012,10,16,03,25,11.80
2012,10,16,03,26,11.80
2012,10,16,03,27,11.80
2012,10,16,03,28,11.80
2012,10,16,03,29,11.80
2012,10,16,03,30,11.80
2012,10,16,03,31,11.80
2012,10,16,03,32,11.70
2012,10,16,03,33,11.70
2012,10,16,03,34,11.70
2012,10,16,03,35,11.70
2012,10,16,03,36,11.70
2012,10,16,03,37,11.70
2012,10,16,03,38,11.70
2012,10,16,03,39,11.70
2012,10,16,03,40,11.70
2012,10,16,03,41,11.70
2012,10,16,03,42,11.80
2012,10,16,03,43,11.80
2012,10,16,03,44,11.80
2012,10,16,03,45,11.80
2012,10,16,03,46,11.70
2012,10,16,03,47,11.70
2012,10,16,03,48,11.70
2012,10,16,03,49,11.70
2012,10,16,03,50,11.70
2012,10,16,03,51,11.60
2012,10,16,03,52,11.60
2012,10,16,03,53,11.60
2012,10,16,03,54,11.60
2012,10,16,03,55,11.50
2012,10,16,03,56,11.40
2012,10,16,03,57,11.40
2012,10,16,03,58,11.40
2012,10,16,03,59,11.40
2012,10,16,04,00,11.40
2012,10,16,04,01,11.40
2012,10,16,04,02,11.40
2012,10,16,04,03,11.40
2012,10,16,04,04,11.40
2012,10,16,04,05,11.40
2012,10,16,04,06,11.40
2012,10,16,04,07,11.40
2012,10,16,04,08,11.40
2012,10,16,09,14,11.20
2012,10,16,09,15,11.20
2012,10,16,09,16,11.20
2012,10,16,09,17,11.20
2012,10,16,09,18,11.10
2012,10,16,09,19,11.10
2012,10,16,09,20,11.10
2012,10,16,09,21,11.10
2012,10,16,09,22,11.10
2012,10,16,09,23,11.10
2012,10,16,09,24,11.10
2012,10,16,09,25,11.10
2012,10,16,09,26,11.10
2012,10,16,09,27,11.10
2012,10,16,09,28,11.10
2012,10,16,09,29,11.10
2012,10,16,09,30,11.10
2012,10,16,09,31,11.10
2012,10,16,09,32,11.10
2012,10,16,09,33,11.10
2012,10,16,09,34,11.10
2012,10,16,09,35,11.10
2012,10,16,09,36,11.10
2012,10,16,09,37,11.10
2012,10,16,09,38,11.10
2012,10,16,09,39,11.10
2012,10,16,09,40,11.10
2012,10,16,09,41,11.20
2012,10,16,09,42,11.20
2012,10,16,09,43,11.20
2012,10,16,09,44,11.20
2012,10,16,09,45,11.30
2012,10,16,09,46,11.30
2012,10,16,09,47,11.30
2012,10,16,09,48,11.30
2012,10,16,09,49,11.40
2012,10,16,09,50,11.40
2012,10,16,09,51,11.40
2012,10,16,09,52,11.40
2012,10,16,09,53,11.40
2012,10,16,09,54,11.40
2012,10,16,09,55,11.40
2012,10,16,09,56,11.50
2012,10,16,09,57,11.60
2012,10,16,09,58,11.60
2012,10,16,09,59,11.60
2012,10,16,10,00,11.60
2012,10,16,10,01,11.60
2012,10,16,10,02,11.60
2012,10,16,10,03,11.60
2012,10,16,10,04,11.70
2012,10,16,10,05,11.70
2012,10,16,10,06,11.70
2012,10,16,10,07,11.70
2012,10,16,10,08,11.80
2012,10,16,10,09,11.80
2012,10,16,10,10,11.80
2012,10,16,10,11,11.80
2012,10,16,10,12,11.80
2012,10,16,10,13,11.90
2012,10,16,10,14,11.90
2012,10,16,10,15,11.90
2012,10,16,10,16,11.90
2012,10,16,10,17,11.90
2012,10,16,10,18,11.90
2012,10,16,10,19,12.00
2012,10,16,10,20,12.00
2012,10,16,10,21,12.00
2012,10,16,10,22,12.00
2012,10,16,10,23,12.10
2012,10,16,10,24,12.10
2012,10,16,10,25,12.10
2012,10,16,10,26,12.00
2012,10,16,10,27,12.00
2012,10,16,10,28,12.00
2012,10,16,10,29,12.00
2012,10,16,10,30,12.00
2012,10,16,10,31,12.00
2012,10,16,10,32,12.00
2012,10,16,10,33,12.00
2012,10,16,10,34,12.00
2012,10,16,10,35,12.00
2012,10,16,10,36,12.00
2012,10,16,10,37,12.00
2012,10,16,10,38,12.00
2012,10,16,10,39,12.00
2012,10,16,10,40,12.00
2012,10,16,10,41,12.20
2012,10,16,10,42,12.20
2012,10,16,10,43,12.20
2012,10,16,10,44,12.20
2012,10,16,10,45,12.20
2012,10,16,10,46,12.20
2012,10,16,10,47,12.20
2012,10,16,10,48,12.20
2012,10,16,10,49,12.30
2012,10,16,10,50,12.30
2012,10,16,10,51,12.30
2012,10,16,10,52,12.30
2012,10,16,10,53,12.30
2012,10,16,10,54,12.30
2012,10,16,10,55,12.30
2012,10,16,10,56,12.30
2012,10,16,10,57,12.30
2012,10,16,10,58,12.30
2012,10,16,10,59,12.40
2012,10,16,11,00,12.50
2012,10,16,11,01,12.60
2012,10,16,11,02,12.60
2012,10,16,11,03,12.70
2012,10,16,11,04,12.70
2012,10,16,11,05,12.60
2012,10,16,11,06,12.60
2012,10,16,11,07,12.70
2012,10,16,11,08,12.70
2012,10,16,11,09,12.70
2012,10,16,11,10,12.70
2012,10,16,11,11,12.70
2012,10,16,11,12,12.70
2012,10,16,11,13,12.80
2012,10,16,11,14,12.70
2012,10,16,11,15,12.70
2012,10,16,11,16,12.80
2012,10,16,11,17,12.80
2012,10,16,11,18,12.80
2012,10,16,11,19,12.80
2012,10,16,11,20,12.80
2012,10,16,11,21,12.80
2012,10,16,11,22,12.80
2012,10,16,11,23,12.80
2012,10,16,11,24,12.70
2012,10,16,11,25,12.60
2012,10,16,11,26,12.60
2012,10,16,11,27,12.60
2012,10,16,11,28,12.50
2012,10,16,11,29,12.50
2012,10,16,11,30,12.40
2012,10,16,11,31,12.40
2012,10,16,11,32,12.50
2012,10,16,11,33,12.60
2012,10,16,11,34,12.60
2012,10,16,11,35,12.70
2012,10,16,11,36,12.70
2012,10,16,11,37,12.70
2012,10,16,11,38,12.70
2012,10,16,11,39,12.70
2012,10,16,11,40,12.70
2012,10,16,11,41,12.70
2012,10,16,11,42,12.70
2012,10,16,11,43,12.60
2012,10,16,11,44,12.60
2012,10,16,11,45,12.60
2012,10,16,11,46,12.60
2012,10,16,11,47,12.50
2012,10,16,11,48,12.50
2012,10,16,11,49,12.50
2012,10,16,11,50,12.40
2012,10,16,11,51,12.50
2012,10,16,11,52,12.50
2012,10,16,11,53,12.50
2012,10,16,11,54,12.50
2012,10,16,11,55,12.60
2012,10,16,11,56,12.60
2012,10,16,11,57,12.60
2012,10,16,11,58,12.60
2012,10,16,11,59,12.70
2012,10,16,12,00,12.70
2012,10,16,12,01,12.70
2012,10,16,12,02,12.80
2012,10,16,12,03,12.80
2012,10,16,12,04,12.80
2012,10,16,12,05,12.70
2012,10,16,12,06,12.70
2012,10,16,12,07,12.70
2012,10,16,12,08,12.70
2012,10,16,12,09,12.60
2012,10,16,12,10,12.60
2012,10,16,12,11,12.50
2012,10,16,12,12,12.40
2012,10,16,12,13,12.30
2012,10,16,12,14,12.30
2012,10,16,12,15,12.20
2012,10,16,12,16,12.20
2012,10,16,12,17,12.10
2012,10,16,12,18,12.10
2012,10,16,12,19,12.20
2012,10,16,12,20,12.30
2012,10,16,12,21,12.30
2012,10,16,12,22,12.40
2012,10,16,12,23,12.50
2012,10,16,12,24,12.50
2012,10,16,12,25,12.60
2012,10,16,12,26,12.60
2012,10,16,12,27,12.60
2012,10,16,12,28,12.60
2012,10,16,12,29,12.60
2012,10,16,12,30,12.60
2012,10,16,12,31,12.60
2012,10,16,12,32,12.50
2012,10,16,12,33,12.50
2012,10,16,12,34,12.50
2012,10,16,12,35,12.50
2012,10,16,12,36,12.50
2012,10,16,12,37,12.50
2012,10,16,12,38,12.50
2012,10,16,12,39,12.50
2012,10,16,12,40,12.50
2012,10,16,12,41,12.50
2012,10,16,12,42,12.60
2012,10,16,12,43,12.60
2012,10,16,12,44,12.60
2012,10,16,12,45,12.60
2012,10,16,12,46,12.50
2012,10,16,12,47,12.50
2012,10,16,12,48,12.50
2012,10,16,12,49,12.50
2012,10,16,12,50,12.40
2012,10,16,12,51,12.40
2012,10,16,12,52,12.50
2012,10,16,12,53,12.50
2012,10,16,12,54,12.50
2012,10,16,12,55,12.60
2012,10,16,12,56,12.70
2012,10,16,12,57,12.70
2012,10,16,12,58,12.80
2012,10,16,12,59,12.80
2012,10,16,13,00,12.90
2012,10,16,13,01,13.00
2012,10,16,13,02,13.00
2012,10,16,13,03,13.00
2012,10,16,13,04,13.00
2012,10,16,13,05,13.10
2012,10,16,13,06,13.10
2012,10,16,13,07,13.10
2012,10,16,13,08,13.20
2012,10,16,13,09,13.20
2012,10,16,13,10,13.30
2012,10,16,13,11,13.30
2012,10,16,13,12,13.30
2012,10,16,13,13,13.40
2012,10,16,13,14,13.40
2012,10,16,13,15,13.40
2012,10,16,13,16,13.40
2012,10,16,13,17,13.40
2012,10,16,13,18,13.40
2012,10,16,13,19,13.40
2012,10,16,13,20,13.40
2012,10,16,13,21,13.30
2012,10,16,13,22,13.20
2012,10,16,13,23,13.20
2012,10,16,13,24,13.10
2012,10,16,13,25,13.00
2012,10,16,13,26,13.00
2012,10,16,13,27,12.90
2012,10,16,13,28,13.00
2012,10,16,13,29,13.00
2012,10,16,13,30,13.00
2012,10,16,13,31,13.00
2012,10,16,13,32,13.10
2012,10,16,13,33,13.10
2012,10,16,13,34,13.00
2012,10,16,13,35,13.10
2012,10,16,13,36,13.00
2012,10,16,13,37,12.90
2012,10,16,13,38,12.90
2012,10,16,13,39,12.90
2012,10,16,13,40,12.80
2012,10,16,13,41,12.80
2012,10,16,13,42,12.80
2012,10,16,13,43,12.80
2012,10,16,13,44,12.80
2012,10,16,13,45,12.80
2012,10,16,13,46,12.80
2012,10,16,13,47,12.80
2012,10,16,13,48,12.80
2012,10,16,13,49,12.80
2012,10,16,13,50,12.80
2012,10,16,13,51,12.80
2012,10,16,13,52,12.80
2012,10,16,13,53,12.80
2012,10,16,13,54,12.80
2012,10,16,13,55,12.90
2012,10,16,13,56,12.90
2012,10,16,13,57,13.00
2012,10,16,13,58,13.10
2012,10,16,13,59,13.20
2012,10,16,14,00,13.30
2012,10,16,14,01,13.30
2012,10,16,14,02,13.30
2012,10,16,14,03,13.40
2012,10,16,14,04,13.30
2012,10,16,14,05,13.30
2012,10,16,14,06,13.30
2012,10,16,14,07,13.30
2012,10,16,14,08,13.30
2012,10,16,14,09,13.30
2012,10,16,14,10,13.30
2012,10,16,14,11,13.40
2012,10,16,14,12,13.50
2012,10,16,14,13,13.50
2012,10,16,14,14,13.50
2012,10,16,14,15,13.60
2012,10,16,14,16,13.60
2012,10,16,14,17,13.60
2012,10,16,14,18,13.60
2012,10,16,14,19,13.70
2012,10,16,14,20,13.70
2012,10,16,14,21,13.70
2012,10,16,14,22,13.70
2012,10,16,14,23,13.60
2012,10,16,14,24,13.70
2012,10,16,14,25,13.70
2012,10,16,14,26,13.70
2012,10,16,14,27,13.70
2012,10,16,14,28,13.70
2012,10,16,14,29,13.70
2012,10,16,14,30,13.70
2012,10,16,14,31,13.70
2012,10,16,14,32,13.80
2012,10,16,14,33,13.80
2012,10,16,14,34,13.80
2012,10,16,14,35,13.80
2012,10,16,14,36,13.80
2012,10,16,14,37,13.80
2012,10,16,14,38,13.80
2012,10,16,14,39,13.80
2012,10,16,14,40,13.90
2012,10,16,14,41,13.90
2012,10,16,14,42,13.90
2012,10,16,14,43,14.00
2012,10,16,14,44,14.00
2012,10,16,14,45,14.00
2012,10,16,14,46,14.00
2012,10,16,14,47,14.00
2012,10,16,14,48,14.00
2012,10,16,14,49,14.10
2012,10,16,14,50,14.20
2012,10,16,14,51,14.20
2012,10,16,14,52,14.30
2012,10,16,14,53,14.30
2012,10,16,14,54,14.30
2012,10,16,14,55,14.30
2012,10,16,14,56,14.30
2012,10,16,14,57,14.20
2012,10,16,14,58,14.20
2012,10,16,14,59,14.20
2012,10,16,15,00,14.20
2012,10,16,15,01,14.20
2012,10,16,15,02,14.20
2012,10,16,15,03,14.20
2012,10,16,15,04,14.20
2012,10,16,15,05,14.20
2012,10,16,15,06,14.20
2012,10,16,15,07,14.20
2012,10,16,15,08,14.20
2012,10,16,15,09,14.20
2012,10,16,15,10,14.20
2012,10,16,15,11,14.30
2012,10,16,15,12,14.30
2012,10,16,15,13,14.30
2012,10,16,15,14,14.20
2012,10,16,15,15,14.20
2012,10,16,15,16,14.20
2012,10,16,15,17,14.10
2012,10,16,15,18,14.10
2012,10,16,15,19,14.10
2012,10,16,15,20,14.10
2012,10,16,15,21,14.10
2012,10,16,15,22,14.20
2012,10,16,15,23,14.20
2012,10,16,15,24,14.20
2012,10,16,15,25,14.10
2012,10,16,15,26,14.10
2012,10,16,15,27,14.20
2012,10,16,15,28,14.30
2012,10,16,15,29,14.40
2012,10,16,15,30,14.50
2012,10,16,15,31,14.60
2012,10,16,15,32,14.60
2012,10,16,15,33,14.70
2012,10,16,15,34,14.70
2012,10,16,15,35,14.70
2012,10,16,15,36,14.70
2012,10,16,15,37,14.70
2012,10,16,15,38,14.60
2012,10,16,15,39,14.60
2012,10,16,15,40,14.60
2012,10,16,15,41,14.60
2012,10,16,15,42,14.60
2012,10,16,15,43,14.60
2012,10,16,15,44,14.50
2012,10,16,15,45,14.50
2012,10,16,15,46,14.40
2012,10,16,15,47,14.30
2012,10,16,15,48,14.30
2012,10,16,15,49,14.20
2012,10,16,15,50,14.20
2012,10,16,15,51,14.20
2012,10,16,15,52,14.10
2012,10,16,15,53,14.00
2012,10,16,15,54,14.00
2012,10,16,15,55,14.00
2012,10,16,15,56,14.00
2012,10,16,15,57,14.00
2012,10,16,15,58,14.00
2012,10,16,15,59,13.90
2012,10,16,16,00,13.90
2012,10,16,16,01,13.90
2012,10,16,16,02,13.90
2012,10,16,16,03,13.90
2012,10,16,16,04,13.80
2012,10,16,16,05,13.70
2012,10,16,16,06,13.80
2012,10,16,16,07,13.80
2012,10,16,16,08,13.80
2012,10,16,16,09,13.70
2012,10,16,16,10,13.70
2012,10,16,16,11,13.60
2012,10,16,16,12,13.60
2012,10,16,16,13,13.60
2012,10,16,16,14,13.50
2012,10,16,16,15,13.40
2012,10,16,16,16,13.40
2012,10,16,16,17,13.50
2012,10,16,16,18,13.50
2012,10,16,16,19,13.50
2012,10,16,16,20,13.50
2012,10,16,16,21,13.50
2012,10,16,16,22,13.50
2012,10,16,16,23,13.50
2012,10,16,16,24,13.40
2012,10,16,16,25,13.30
2012,10,16,16,26,13.30
2012,10,16,16,27,13.30
2012,10,16,16,28,13.30
2012,10,16,16,29,13.30
2012,10,16,16,30,13.30
2012,10,16,16,31,13.30
2012,10,16,16,32,13.20
2012,10,16,16,33,13.20
2012,10,16,16,34,13.20
2012,10,16,16,35,13.20
2012,10,16,16,36,13.20
2012,10,16,16,37,13.10
2012,10,16,16,38,13.10
2012,10,16,16,39,13.00
2012,10,16,16,40,13.00
2012,10,16,16,41,12.90
2012,10,16,16,42,13.00
2012,10,16,16,43,13.00
2012,10,16,16,44,13.00
2012,10,16,16,45,12.90
2012,10,16,16,46,13.00
2012,10,16,16,47,13.00
2012,10,16,16,48,13.00
2012,10,16,16,49,13.00
2012,10,16,16,50,13.00
2012,10,16,16,51,13.00
2012,10,16,16,52,13.00
2012,10,16,16,53,12.90
2012,10,16,16,54,12.90
2012,10,16,16,55,12.90
2012,10,16,16,56,13.00
2012,10,16,16,57,12.90
2012,10,16,16,58,12.90
2012,10,16,16,59,12.80
2012,10,16,17,00,12.80
2012,10,16,17,01,12.70
2012,10,16,17,02,12.70
2012,10,16,17,03,12.70
2012,10,16,17,04,12.70
2012,10,16,17,05,12.70
2012,10,16,17,06,12.70
2012,10,16,17,07,12.70
2012,10,16,17,08,12.70
2012,10,16,17,09,12.70
2012,10,16,17,10,12.70
2012,10,16,17,11,12.70
2012,10,16,17,12,12.60
2012,10,16,17,13,12.60
2012,10,16,17,14,12.50
2012,10,16,17,15,12.50
2012,10,16,17,16,12.50
2012,10,16,17,17,12.40
2012,10,16,17,18,12.40
2012,10,16,17,19,12.50
2012,10,16,17,20,12.50
2012,10,16,17,21,12.40
2012,10,16,17,22,12.40
2012,10,16,17,23,12.30
2012,10,16,17,24,12.30
2012,10,16,17,25,12.30
2012,10,16,17,26,12.30
2012,10,16,17,27,12.30
2012,10,16,17,28,12.30
2012,10,16,17,29,12.30
2012,10,16,17,30,12.30
2012,10,16,17,31,12.30
2012,10,16,17,32,12.20
2012,10,16,17,33,12.20
2012,10,16,17,34,12.20
2012,10,16,17,35,12.20
2012,10,16,17,36,12.20
2012,10,16,17,37,12.20
2012,10,16,17,38,12.30
2012,10,16,17,39,12.30
2012,10,16,17,40,12.30
2012,10,16,17,41,12.30
2012,10,16,17,42,12.30
2012,10,16,17,43,12.30
2012,10,16,17,44,12.30
2012,10,16,17,45,12.30
2012,10,16,17,46,12.20
2012,10,16,17,47,12.20
2012,10,16,17,48,12.10
2012,10,16,17,49,12.10
2012,10,16,17,50,12.10
2012,10,16,17,51,12.10
2012,10,16,17,52,12.10
2012,10,16,17,53,12.00
2012,10,16,17,54,12.00
2012,10,16,17,55,12.00
2012,10,16,17,56,12.00
2012,10,16,17,57,11.90
2012,10,16,17,58,11.90
2012,10,16,17,59,11.90
2012,10,16,18,00,11.90
2012,10,16,18,01,11.80
2012,10,16,18,02,11.80
2012,10,16,18,03,11.80
2012,10,16,18,04,11.80
2012,10,16,18,05,11.80
2012,10,16,18,06,11.70
2012,10,16,18,07,11.70
2012,10,16,18,08,11.70
2012,10,16,18,09,11.70
2012,10,16,18,10,11.60
2012,10,16,18,11,11.60
2012,10,16,18,12,11.60
2012,10,16,18,13,11.60
2012,10,16,18,14,11.60
2012,10,16,18,15,11.40
2012,10,16,18,16,11.40
2012,10,16,18,17,11.40
2012,10,16,18,18,11.40
2012,10,16,18,19,11.40
2012,10,16,18,20,11.40
2012,10,16,18,21,11.40
2012,10,16,18,22,11.40
2012,10,16,18,23,11.40
2012,10,16,18,24,11.40
2012,10,16,18,25,11.40
2012,10,16,18,26,11.30
2012,10,16,18,27,11.30
2012,10,16,18,28,11.30
2012,10,16,18,29,11.30
2012,10,16,18,30,11.30
2012,10,16,18,31,11.20
2012,10,16,18,32,11.20
2012,10,16,18,33,11.20
2012,10,16,18,34,11.20
2012,10,16,18,35,11.20
2012,10,16,18,36,11.20
2012,10,16,18,37,11.10
2012,10,16,18,38,11.10
2012,10,16,18,39,11.10
2012,10,16,18,40,11.10
2012,10,16,18,41,11.10
2012,10,16,18,42,11.10
2012,10,16,18,43,11.10
2012,10,16,18,44,11.10
2012,10,16,18,45,11.10
2012,10,16,18,46,11.10
2012,10,16,18,47,11.10
2012,10,16,18,48,11.10
2012,10,16,18,49,11.10
2012,10,16,18,50,11.10
2012,10,16,18,51,11.10
2012,10,16,18,52,11.00
2012,10,16,18,53,11.00
2012,10,16,18,54,10.90
2012,10,16,18,55,10.90
2012,10,16,18,56,10.90
2012,10,16,18,57,10.90
2012,10,16,18,58,10.90
2012,10,16,18,59,10.90
2012,10,16,19,00,10.90
2012,10,16,19,01,10.90
2012,10,16,19,02,10.90
2012,10,16,19,03,10.90
2012,10,16,19,04,10.90
2012,10,16,19,05,10.90
2012,10,16,19,06,10.90
2012,10,16,19,07,10.90
2012,10,16,19,08,10.90
2012,10,16,19,09,10.90
2012,10,16,19,10,10.90
2012,10,16,19,11,10.90
2012,10,16,19,12,10.80
2012,10,16,19,13,10.80
2012,10,16,19,14,10.80
2012,10,16,19,15,10.80
2012,10,16,19,16,10.80
2012,10,16,19,17,10.80
2012,10,16,19,18,10.80
2012,10,16,19,19,10.80
2012,10,16,19,20,10.80
2012,10,16,19,21,10.90
2012,10,16,19,22,10.90
2012,10,16,19,23,10.90
2012,10,16,19,24,10.90
2012,10,16,19,25,10.90
2012,10,16,19,26,10.90
2012,10,16,19,27,10.90
2012,10,16,19,28,10.90
2012,10,16,19,29,10.90
2012,10,16,19,30,10.90
2012,10,16,19,31,10.90
2012,10,16,19,32,10.90
2012,10,16,19,33,10.90
2012,10,16,19,34,10.90
2012,10,16,19,35,10.90
2012,10,16,19,36,10.90
2012,10,16,19,37,10.90
2012,10,16,19,38,10.90
2012,10,16,19,39,10.90
2012,10,16,19,40,10.90
2012,10,16,19,41,10.90
2012,10,16,19,42,10.90
2012,10,16,19,43,10.90
2012,10,16,19,44,10.90
2012,10,16,19,45,10.90
2012,10,16,19,46,10.90
2012,10,16,19,47,10.90
2012,10,16,19,48,10.90
2012,10,16,19,49,10.80
2012,10,16,19,50,10.80
2012,10,16,19,51,10.80
2012,10,16,19,52,10.80
2012,10,16,19,53,10.80
2012,10,16,19,54,10.80
2012,10,16,19,55,10.80
2012,10,16,19,56,10.80
2012,10,16,19,57,10.80
2012,10,16,19,58,10.80
2012,10,16,19,59,10.80
2012,10,16,20,00,10.80
2012,10,16,20,01,10.80
2012,10,16,20,02,10.70
2012,10,16,20,03,10.70
2012,10,16,20,04,10.70
2012,10,16,20,05,10.70
2012,10,16,20,06,10.70
2012,10,16,20,07,10.70
2012,10,16,20,08,10.70
2012,10,16,20,09,10.70
2012,10,16,20,10,10.70
2012,10,16,20,11,10.70
2012,10,16,20,12,10.70
2012,10,16,20,13,10.70
2012,10,16,20,14,10.60
2012,10,16,20,15,10.60
2012,10,16,20,16,10.60
2012,10,16,20,17,10.60
2012,10,16,20,18,10.60
2012,10,16,20,19,10.60
2012,10,16,20,20,10.60
2012,10,16,20,21,10.60
2012,10,16,20,22,10.60
2012,10,16,20,23,10.60
2012,10,16,20,24,10.60
2012,10,16,20,25,10.70
2012,10,16,20,26,10.70
2012,10,16,20,27,10.70
2012,10,16,20,28,10.70
2012,10,16,20,29,10.70
2012,10,16,20,30,10.70
2012,10,16,20,31,10.70
2012,10,16,20,32,10.70
2012,10,16,20,33,10.70
2012,10,16,20,34,10.70
2012,10,16,20,35,10.70
2012,10,16,20,36,10.70
2012,10,16,20,37,10.70
2012,10,16,20,38,10.70
2012,10,16,20,39,10.70
2012,10,16,20,40,10.60
2012,10,16,20,41,10.60
2012,10,16,20,42,10.60
2012,10,16,20,43,10.60
2012,10,16,20,44,10.60
2012,10,16,20,45,10.60
2012,10,16,20,46,10.60
2012,10,16,20,47,10.60
2012,10,16,20,48,10.60
2012,10,16,20,49,10.60
2012,10,16,20,50,10.60
2012,10,16,20,51,10.60
2012,10,16,20,52,10.60
2012,10,16,20,53,10.60
2012,10,16,20,54,10.60
2012,10,16,20,55,10.60
2012,10,16,20,56,10.60
2012,10,16,20,57,10.60
2012,10,16,20,58,10.60
2012,10,16,20,59,10.60
2012,10,16,21,00,10.60
2012,10,16,21,01,10.60
2012,10,16,21,02,10.60
2012,10,16,21,03,10.60
2012,10,16,21,04,10.60
2012,10,16,21,05,10.60
2012,10,16,21,06,10.60
2012,10,16,21,07,10.60
2012,10,16,21,08,10.60
2012,10,16,21,09,10.60
2012,10,16,21,10,10.60
2012,10,16,21,11,10.60
2012,10,16,21,12,10.60
2012,10,16,21,13,10.60
2012,10,16,21,14,10.60
2012,10,16,21,15,10.60
2012,10,16,21,16,10.60
2012,10,16,21,17,10.60
2012,10,16,21,18,10.60
2012,10,16,21,19,10.60
2012,10,16,21,20,10.60
2012,10,16,21,21,10.60
2012,10,16,21,22,10.60
2012,10,16,21,23,10.60
2012,10,16,21,24,10.60
2012,10,16,21,25,10.60
2012,10,16,21,26,10.60
2012,10,16,21,27,10.60
2012,10,16,21,28,10.60
2012,10,16,21,29,10.60
2012,10,16,21,30,10.60
2012,10,16,21,31,10.60
2012,10,16,21,32,10.60
2012,10,16,21,33,10.60
2012,10,16,21,34,10.60
2012,10,16,21,35,10.60
2012,10,16,21,36,10.60
2012,10,16,21,37,10.60
2012,10,16,21,38,10.60
2012,10,16,21,39,10.50
2012,10,16,21,40,10.40
2012,10,16,21,41,10.40
2012,10,16,21,42,10.40
2012,10,16,21,43,10.40
2012,10,16,21,44,10.40
2012,10,16,21,45,10.40
2012,10,16,21,46,10.40
2012,10,16,21,47,10.40
2012,10,16,21,48,10.40
2012,10,16,21,49,10.40
2012,10,16,21,50,10.40
2012,10,16,21,51,10.40
2012,10,16,21,52,10.40
2012,10,16,21,53,10.40
2012,10,16,21,54,10.40
2012,10,16,21,55,10.40
2012,10,16,21,56,10.40
2012,10,16,21,57,10.40
2012,10,16,21,58,10.40
2012,10,16,21,59,10.40
2012,10,16,22,00,10.40
2012,10,16,22,01,10.40
2012,10,16,22,02,10.40
2012,10,16,22,03,10.40
2012,10,16,22,04,10.40
2012,10,16,22,05,10.40
2012,10,16,22,06,10.40
2012,10,16,22,07,10.40
2012,10,16,22,08,10.40
2012,10,16,22,09,10.40
2012,10,16,22,10,10.40
2012,10,16,22,11,10.40
2012,10,16,22,12,10.40
2012,10,16,22,13,10.40
2012,10,16,22,14,10.40
2012,10,16,22,15,10.40
2012,10,16,22,16,10.40
2012,10,16,22,17,10.40
2012,10,16,22,18,10.40
2012,10,16,22,19,10.40
2012,10,16,22,20,10.40
2012,10,16,22,21,10.40
2012,10,16,22,22,10.40
2012,10,16,22,23,10.40
2012,10,16,22,24,10.40